FDX721 KMEM-KEWR

Flight info

Callsign FDX721
Flight time 1h 42m
Altitude 35000
Route GOETZ7 DIYAB HITMN Q34 GVE PHLBO4
Aircraft B77L/H-SDE1E2E3FGHIJ2J3J4J5M1RWXY/LB1D1

Departure

Time 2026-05-07 23:57
Airport Memphis International Airport (KMEM)

Arrival

Time 2026-05-08 01:40
Airport Newark Liberty International Airport (KEWR)
Time Latitude Longitude Altitude Speed Heading
2026-05-07 23:31 35.06020 -89.97111 330 ft 0 kts
2026-05-07 23:31 35.06019 -89.97111 330 ft 0 kts
2026-05-07 23:40 35.06017 -89.97111 335 ft 2 kts
2026-05-07 23:40 35.05990 -89.97112 332 ft 3 kts
2026-05-07 23:40 35.05963 -89.97113 330 ft 3 kts
2026-05-07 23:40 35.05943 -89.97112 329 ft 4 kts 335°
2026-05-07 23:41 35.05931 -89.97093 329 ft 2 kts 272°
2026-05-07 23:41 35.05930 -89.97062 329 ft 2 kts 272°
2026-05-07 23:41 35.05930 -89.97059 329 ft 3 kts 272°
2026-05-07 23:44 35.05930 -89.97060 329 ft 1 kts 272°
2026-05-07 23:44 35.05931 -89.97101 329 ft 7 kts 272°
2026-05-07 23:44 35.05933 -89.97157 333 ft 7 kts 272°
2026-05-07 23:44 35.05934 -89.97212 335 ft 7 kts 272°
2026-05-07 23:45 35.05936 -89.97272 331 ft 7 kts 272°
2026-05-07 23:45 35.05938 -89.97333 330 ft 7 kts 272°
2026-05-07 23:45 35.05939 -89.97394 335 ft 7 kts 271°
2026-05-07 23:45 35.05940 -89.97455 335 ft 7 kts 264°
2026-05-07 23:46 35.05906 -89.97496 331 ft 7 kts 197°
2026-05-07 23:46 35.05849 -89.97487 332 ft 9 kts 169°
2026-05-07 23:46 35.05776 -89.97482 333 ft 12 kts 182°
2026-05-07 23:46 35.05683 -89.97487 332 ft 14 kts 180°
2026-05-07 23:47 35.05589 -89.97487 329 ft 14 kts 180°
2026-05-07 23:47 35.05495 -89.97486 331 ft 14 kts 179°
2026-05-07 23:47 35.05400 -89.97482 330 ft 14 kts 177°
2026-05-07 23:47 35.05306 -89.97481 328 ft 14 kts 180°
2026-05-07 23:48 35.05212 -89.97479 327 ft 14 kts 179°
2026-05-07 23:48 35.05117 -89.97478 330 ft 14 kts 178°
2026-05-07 23:48 35.05055 -89.97475 329 ft 14 kts 178°
2026-05-07 23:48 35.04961 -89.97474 329 ft 14 kts 179°
2026-05-07 23:49 35.04836 -89.97472 329 ft 14 kts 179°
2026-05-07 23:49 35.04742 -89.97469 327 ft 14 kts 179°
2026-05-07 23:49 35.04647 -89.97467 330 ft 14 kts 179°
2026-05-07 23:49 35.04584 -89.97466 327 ft 14 kts 179°
2026-05-07 23:50 35.04491 -89.97465 330 ft 14 kts 178°
2026-05-07 23:50 35.04396 -89.97462 329 ft 14 kts 179°
2026-05-07 23:50 35.04302 -89.97460 330 ft 14 kts 179°
2026-05-07 23:50 35.04208 -89.97458 330 ft 14 kts 178°
2026-05-07 23:51 35.04113 -89.97454 330 ft 14 kts 178°
2026-05-07 23:51 35.04019 -89.97454 330 ft 14 kts 180°
2026-05-07 23:51 35.03925 -89.97452 330 ft 14 kts 178°
2026-05-07 23:51 35.03831 -89.97448 330 ft 14 kts 179°
2026-05-07 23:52 35.03737 -89.97448 329 ft 14 kts 180°
2026-05-07 23:52 35.03643 -89.97446 329 ft 14 kts 177°
2026-05-07 23:52 35.03548 -89.97437 330 ft 14 kts 178°
2026-05-07 23:52 35.03456 -89.97442 330 ft 14 kts 181°
2026-05-07 23:53 35.03361 -89.97442 330 ft 14 kts 179°
2026-05-07 23:53 35.03267 -89.97438 329 ft 14 kts 177°
2026-05-07 23:53 35.03173 -89.97435 330 ft 14 kts 179°
2026-05-07 23:53 35.03079 -89.97434 330 ft 14 kts 179°
2026-05-07 23:54 35.02984 -89.97433 330 ft 14 kts 179°
2026-05-07 23:54 35.02890 -89.97430 330 ft 14 kts 179°
2026-05-07 23:54 35.02796 -89.97428 328 ft 14 kts 179°
2026-05-07 23:54 35.02701 -89.97426 331 ft 14 kts 179°
2026-05-07 23:55 35.02607 -89.97424 331 ft 14 kts 179°
2026-05-07 23:55 35.02520 -89.97421 329 ft 10 kts 178°
2026-05-07 23:55 35.02459 -89.97423 330 ft 7 kts 191°
2026-05-07 23:55 35.02438 -89.97433 329 ft 0 kts 209°
2026-05-07 23:56 35.02427 -89.97444 329 ft 6 kts 224°
2026-05-07 23:56 35.02426 -89.97526 324 ft 12 kts 303°
2026-05-07 23:56 35.02507 -89.97556 328 ft 20 kts 358°
2026-05-07 23:56 35.02887 -89.97564 326 ft 89 kts 359°
2026-05-07 23:57 35.03721 -89.97582 325 ft 148 kts 359°
2026-05-07 23:57 35.04895 -89.97600 454 ft 178 kts 359°
2026-05-07 23:57 35.06154 -89.97609 950 ft 184 kts 359°
2026-05-07 23:57 35.07422 -89.97599 1542 ft 181 kts
2026-05-07 23:58 35.08624 -89.97182 2058 ft 186 kts 33°
2026-05-07 23:58 35.09721 -89.96231 2309 ft 204 kts 32°
2026-05-07 23:58 35.10982 -89.95222 2523 ft 229 kts 32°
2026-05-07 23:58 35.12367 -89.94124 2951 ft 243 kts 32°
2026-05-07 23:59 35.13614 -89.92683 3470 ft 255 kts 58°
2026-05-07 23:59 35.14190 -89.90606 4142 ft 263 kts 82°
2026-05-07 23:59 35.14243 -89.88341 4871 ft 268 kts 90°
2026-05-07 23:59 35.14164 -89.86039 5602 ft 274 kts 91°
2026-05-08 00:00 35.14077 -89.83688 6298 ft 280 kts 90°
2026-05-08 00:00 35.14208 -89.81345 6823 ft 284 kts 76°
2026-05-08 00:00 35.14654 -89.78963 7425 ft 290 kts 73°
2026-05-08 00:00 35.15133 -89.76539 8067 ft 297 kts 73°
2026-05-08 00:01 35.15588 -89.74051 8678 ft 305 kts 75°
2026-05-08 00:01 35.16031 -89.71490 9301 ft 311 kts 75°
2026-05-08 00:01 35.16475 -89.68868 9930 ft 319 kts 75°
2026-05-08 00:01 35.16927 -89.66183 10374 ft 332 kts 75°
2026-05-08 00:02 35.17409 -89.63320 10535 ft 356 kts 75°
2026-05-08 00:02 35.17920 -89.60264 10717 ft 379 kts 75°
2026-05-08 00:02 35.18463 -89.57002 10963 ft 400 kts 76°
2026-05-08 00:02 35.19024 -89.53617 11489 ft 412 kts 76°
2026-05-08 00:03 35.19600 -89.50142 12152 ft 421 kts 76°
2026-05-08 00:03 35.20087 -89.46578 12934 ft 428 kts 81°
2026-05-08 00:03 35.20346 -89.42923 13690 ft 436 kts 84°
2026-05-08 00:03 35.20526 -89.39190 14355 ft 443 kts 85°
2026-05-08 00:04 35.20714 -89.35401 15035 ft 449 kts 85°
2026-05-08 00:04 35.20936 -89.31568 15743 ft 454 kts 84°
2026-05-08 00:04 35.21184 -89.27743 16442 ft 460 kts 84°
2026-05-08 00:04 35.21448 -89.23820 17120 ft 465 kts 84°
2026-05-08 00:05 35.21929 -89.19891 17716 ft 469 kts 73°
2026-05-08 00:05 35.22920 -89.16063 18293 ft 474 kts 67°
2026-05-08 00:05 35.24028 -89.12238 18895 ft 479 kts 67°
2026-05-08 00:05 35.25233 -89.08441 19563 ft 479 kts 63°
2026-05-08 00:06 35.26615 -89.04714 20207 ft 481 kts 60°
2026-05-08 00:06 35.28084 -89.01004 20747 ft 487 kts 59°
2026-05-08 00:06 35.29593 -88.97253 21266 ft 493 kts 59°
2026-05-08 00:06 35.31104 -88.93463 21808 ft 498 kts 59°
2026-05-08 00:07 35.32593 -88.89667 22329 ft 504 kts 60°
2026-05-08 00:07 35.34097 -88.85769 22919 ft 509 kts 60°
2026-05-08 00:07 35.35602 -88.81822 23437 ft 514 kts 60°
2026-05-08 00:07 35.37115 -88.77826 23890 ft 520 kts 60°
2026-05-08 00:08 35.38642 -88.73776 24261 ft 527 kts 60°
2026-05-08 00:08 35.40191 -88.69665 24623 ft 533 kts 60°
2026-05-08 00:08 35.41753 -88.65511 25000 ft 539 kts 60°
2026-05-08 00:08 35.43334 -88.61307 25376 ft 545 kts 60°
2026-05-08 00:09 35.44934 -88.57050 25759 ft 551 kts 60°
2026-05-08 00:09 35.46546 -88.52757 26125 ft 557 kts 60°
2026-05-08 00:09 35.48175 -88.48413 26508 ft 563 kts 60°
2026-05-08 00:09 35.49820 -88.44021 26917 ft 569 kts 60°
2026-05-08 00:10 35.51478 -88.39589 27291 ft 574 kts 60°
2026-05-08 00:10 35.53127 -88.35174 27666 ft 579 kts 60°
2026-05-08 00:10 35.54833 -88.30598 27992 ft 585 kts 60°
2026-05-08 00:10 35.56514 -88.26086 28326 ft 590 kts 60°
2026-05-08 00:11 35.58229 -88.21474 28655 ft 596 kts 60°
2026-05-08 00:11 35.59959 -88.16814 28977 ft 601 kts 60°
2026-05-08 00:11 35.61700 -88.12119 29306 ft 605 kts 60°
2026-05-08 00:11 35.63447 -88.07399 29620 ft 610 kts 60°
2026-05-08 00:12 35.65208 -88.02633 29971 ft 614 kts 60°
2026-05-08 00:12 35.66973 -87.97848 30387 ft 614 kts 60°
2026-05-08 00:12 35.68713 -87.93118 30861 ft 613 kts 60°
2026-05-08 00:12 35.70466 -87.88344 31366 ft 611 kts 60°
2026-05-08 00:13 35.72215 -87.83579 31819 ft 610 kts 60°
2026-05-08 00:13 35.73964 -87.78813 32290 ft 610 kts 60°
2026-05-08 00:13 35.75705 -87.74061 32737 ft 609 kts 60°
2026-05-08 00:13 35.77449 -87.69297 33154 ft 609 kts 60°
2026-05-08 00:14 35.79188 -87.64539 33514 ft 609 kts 60°
2026-05-08 00:14 35.80929 -87.59768 33808 ft 611 kts 60°
2026-05-08 00:14 35.82673 -87.54980 34142 ft 612 kts 60°
2026-05-08 00:14 35.84414 -87.50187 34487 ft 611 kts 60°
2026-05-08 00:15 35.86125 -87.45470 34862 ft 609 kts 60°
2026-05-08 00:15 35.87851 -87.40707 35124 ft 609 kts 60°
2026-05-08 00:15 35.91316 -87.31133 35085 ft 611 kts 60°
2026-05-08 00:16 35.94764 -87.21561 35058 ft 609 kts 60°
2026-05-08 00:16 35.98192 -87.12021 35054 ft 607 kts 60°
2026-05-08 00:17 36.01612 -87.02477 35044 ft 607 kts 60°
2026-05-08 00:17 36.05020 -86.92940 35034 ft 607 kts 60°
2026-05-08 00:18 36.08424 -86.83383 35042 ft 608 kts 60°
2026-05-08 00:18 36.11824 -86.73804 35056 ft 609 kts 60°
2026-05-08 00:19 36.15194 -86.64171 35054 ft 610 kts 62°
2026-05-08 00:19 36.18364 -86.54409 35056 ft 612 kts 63°
2026-05-08 00:20 36.21475 -86.44586 35101 ft 613 kts 63°
2026-05-08 00:20 36.24602 -86.34804 35074 ft 614 kts 63°
2026-05-08 00:21 36.27766 -86.24965 35069 ft 613 kts 63°
2026-05-08 00:21 36.30917 -86.15147 35042 ft 613 kts 63°
2026-05-08 00:22 36.34052 -86.05335 35054 ft 612 kts 63°
2026-05-08 00:22 36.37183 -85.95496 35048 ft 612 kts 63°
2026-05-08 00:23 36.40305 -85.85653 35036 ft 611 kts 63°
2026-05-08 00:23 36.43387 -85.75886 35121 ft 611 kts 63°
2026-05-08 00:24 36.46493 -85.66031 35060 ft 613 kts 63°
2026-05-08 00:24 36.49587 -85.56154 35051 ft 613 kts 63°
2026-05-08 00:25 36.52666 -85.46320 35042 ft 613 kts 63°
2026-05-08 00:25 36.55746 -85.36447 35045 ft 613 kts 63°
2026-05-08 00:26 36.58812 -85.26556 35041 ft 613 kts 63°
2026-05-08 00:26 36.61880 -85.16656 35055 ft 613 kts 63°
2026-05-08 00:27 36.64919 -85.06798 35120 ft 614 kts 63°
2026-05-08 00:27 36.67972 -84.96860 35059 ft 615 kts 64°
2026-05-08 00:28 36.71026 -84.86887 35068 ft 615 kts 63°
2026-05-08 00:28 36.74066 -84.76923 35060 ft 615 kts 63°
2026-05-08 00:29 36.77100 -84.66941 35059 ft 614 kts 64°
2026-05-08 00:29 36.80118 -84.56976 35058 ft 614 kts 64°
2026-05-08 00:30 36.83134 -84.47006 35029 ft 614 kts 64°
2026-05-08 00:30 36.86128 -84.37085 35096 ft 613 kts 64°
2026-05-08 00:31 36.89135 -84.27084 35032 ft 615 kts 64°
2026-05-08 00:31 36.92124 -84.17095 35034 ft 615 kts 64°
2026-05-08 00:32 36.95093 -84.07145 35027 ft 615 kts 64°
2026-05-08 00:32 36.98071 -83.97113 35033 ft 614 kts 64°
2026-05-08 00:33 37.01029 -83.87079 35017 ft 615 kts 64°
2026-05-08 00:33 37.03981 -83.77024 35029 ft 615 kts 64°
2026-05-08 00:34 37.06920 -83.66983 35092 ft 615 kts 64°
2026-05-08 00:34 37.09367 -83.58602 35019 ft 616 kts 64°
2026-05-08 00:35 37.12776 -83.46873 35014 ft 616 kts 64°
2026-05-08 00:35 37.15702 -83.36770 35018 ft 615 kts 64°
2026-05-08 00:36 37.18120 -83.28388 35017 ft 615 kts 64°
2026-05-08 00:36 37.21028 -83.18278 35014 ft 615 kts 64°
2026-05-08 00:37 37.23923 -83.08176 35008 ft 615 kts 65°
2026-05-08 00:38 37.28247 -82.93025 35049 ft 615 kts 65°
2026-05-08 00:38 37.31127 -82.82895 35016 ft 616 kts 65°
2026-05-08 00:39 37.34000 -82.72750 35010 ft 615 kts 65°
2026-05-08 00:39 37.36840 -82.62680 35013 ft 615 kts 65°
2026-05-08 00:40 37.39691 -82.52530 35015 ft 615 kts 65°
2026-05-08 00:40 37.42533 -82.42376 34995 ft 615 kts 65°
2026-05-08 00:41 37.45365 -82.32223 34989 ft 615 kts 65°
2026-05-08 00:41 37.48170 -82.22124 35032 ft 616 kts 65°
2026-05-08 00:42 37.50993 -82.11925 35001 ft 616 kts 65°
2026-05-08 00:42 37.53813 -82.01731 34993 ft 615 kts 65°
2026-05-08 00:43 37.56621 -81.91553 35001 ft 614 kts 65°
2026-05-08 00:43 37.59415 -81.81382 34995 ft 614 kts 66°
2026-05-08 00:44 37.62190 -81.71192 34987 ft 614 kts 66°
2026-05-08 00:44 37.64956 -81.61002 34990 ft 614 kts 66°
2026-05-08 00:45 37.67696 -81.50872 35031 ft 613 kts 67°
2026-05-08 00:45 37.70388 -81.40706 35002 ft 607 kts 66°
2026-05-08 00:46 37.73113 -81.30640 34999 ft 605 kts 66°
2026-05-08 00:46 37.75806 -81.20571 34990 ft 604 kts 66°
2026-05-08 00:47 37.78033 -81.10307 35003 ft 609 kts 76°
2026-05-08 00:47 37.79000 -80.99601 34994 ft 613 kts 85°
2026-05-08 00:48 37.79589 -80.88908 34989 ft 615 kts 85°
2026-05-08 00:48 37.80255 -80.78113 34993 ft 616 kts 84°
2026-05-08 00:49 37.80968 -80.67280 34997 ft 618 kts 84°
2026-05-08 00:49 37.81669 -80.56431 35054 ft 618 kts 85°
2026-05-08 00:50 37.82348 -80.45669 34995 ft 608 kts 85°
2026-05-08 00:50 37.83016 -80.35019 34997 ft 607 kts 85°
2026-05-08 00:51 37.83675 -80.24437 34994 ft 608 kts 85°
2026-05-08 00:51 37.84331 -80.13763 34973 ft 608 kts 85°
2026-05-08 00:52 37.84979 -80.03087 34973 ft 609 kts 85°
2026-05-08 00:52 37.85613 -79.92390 34976 ft 610 kts 85°
2026-05-08 00:53 37.86239 -79.81661 34964 ft 612 kts 85°
2026-05-08 00:53 37.86848 -79.70892 34958 ft 613 kts 86°
2026-05-08 00:53 37.87058 -79.65500 35067 ft 614 kts 88°
2026-05-08 00:54 37.87210 -79.60095 35071 ft 614 kts 88°
2026-05-08 00:54 37.87495 -79.49287 35087 ft 614 kts 88°
2026-05-08 00:55 37.87830 -79.38482 35062 ft 615 kts 88°
2026-05-08 00:55 37.88492 -79.27768 35032 ft 614 kts 80°
2026-05-08 00:56 37.89793 -79.17071 34993 ft 614 kts 79°
2026-05-08 00:56 37.91132 -79.06377 34944 ft 614 kts 79°
2026-05-08 00:57 37.92390 -78.95736 34930 ft 615 kts 80°
2026-05-08 00:57 37.93620 -78.84982 34913 ft 616 kts 80°
2026-05-08 00:58 37.94841 -78.74231 34930 ft 617 kts 80°
2026-05-08 00:58 37.96061 -78.63485 34917 ft 616 kts 80°
2026-05-08 00:59 37.97273 -78.52714 34931 ft 617 kts 80°
2026-05-08 00:59 37.98475 -78.41930 34928 ft 618 kts 80°
2026-05-08 01:00 37.99661 -78.31207 34922 ft 618 kts 80°
2026-05-08 01:00 38.00846 -78.20409 34936 ft 617 kts 79°
2026-05-08 01:00 38.01740 -78.15107 34923 ft 612 kts 67°
2026-05-08 01:01 38.03467 -78.10268 34950 ft 592 kts 49°
2026-05-08 01:01 38.07977 -78.01600 34959 ft 590 kts 48°
2026-05-08 01:02 38.12483 -77.92907 34933 ft 590 kts 49°
2026-05-08 01:02 38.16909 -77.84129 34937 ft 590 kts 50°
2026-05-08 01:03 38.21271 -77.75281 34935 ft 590 kts 50°
2026-05-08 01:03 38.25583 -77.66481 35008 ft 589 kts 51°
2026-05-08 01:04 38.29943 -77.57584 34910 ft 587 kts 51°
2026-05-08 01:04 38.34211 -77.48862 34904 ft 578 kts 51°
2026-05-08 01:04 38.36337 -77.44501 34833 ft 567 kts 51°
2026-05-08 01:05 38.38372 -77.40319 34714 ft 558 kts 51°
2026-05-08 01:05 38.40412 -77.36127 34485 ft 553 kts 51°
2026-05-08 01:05 38.42435 -77.31978 34104 ft 551 kts 50°
2026-05-08 01:05 38.44457 -77.27829 33695 ft 550 kts 51°
2026-05-08 01:06 38.46467 -77.23698 33339 ft 547 kts 51°
2026-05-08 01:06 38.48464 -77.19584 33050 ft 542 kts 51°
2026-05-08 01:06 38.50434 -77.15515 32767 ft 537 kts 51°
2026-05-08 01:06 38.52394 -77.11460 32449 ft 534 kts 51°
2026-05-08 01:07 38.54338 -77.07435 32092 ft 531 kts 51°
2026-05-08 01:07 38.56277 -77.03416 31726 ft 529 kts 51°
2026-05-08 01:07 38.58197 -76.99433 31392 ft 526 kts 51°
2026-05-08 01:07 38.60111 -76.95456 31061 ft 523 kts 52°
2026-05-08 01:08 38.62010 -76.91506 30827 ft 520 kts 52°
2026-05-08 01:08 38.63903 -76.87564 30436 ft 519 kts 52°
2026-05-08 01:08 38.65765 -76.83683 30087 ft 517 kts 52°
2026-05-08 01:08 38.67636 -76.79773 29792 ft 513 kts 52°
2026-05-08 01:09 38.69488 -76.75899 29501 ft 509 kts 52°
2026-05-08 01:09 38.71329 -76.72047 29193 ft 505 kts 52°
2026-05-08 01:09 38.73155 -76.68223 28915 ft 501 kts 52°
2026-05-08 01:09 38.75077 -76.64549 28742 ft 489 kts 41°
2026-05-08 01:10 38.77515 -76.61671 28569 ft 468 kts 25°
2026-05-08 01:10 38.82841 -76.56762 28443 ft 477 kts 26°
2026-05-08 01:10 38.85514 -76.54236 28315 ft 477 kts 27°
2026-05-08 01:11 38.88160 -76.51677 28187 ft 477 kts 27°
2026-05-08 01:11 38.90794 -76.49096 28022 ft 475 kts 28°
2026-05-08 01:11 38.93420 -76.46510 27886 ft 474 kts 28°
2026-05-08 01:11 38.96034 -76.43932 27757 ft 472 kts 28°
2026-05-08 01:12 38.98633 -76.41372 27565 ft 468 kts 28°
2026-05-08 01:12 39.01209 -76.38836 27352 ft 465 kts 28°
2026-05-08 01:12 39.03754 -76.36286 26973 ft 466 kts 31°
2026-05-08 01:12 39.06204 -76.33548 26920 ft 466 kts 34°
2026-05-08 01:13 39.08589 -76.30722 26911 ft 468 kts 34°
2026-05-08 01:13 39.10986 -76.27848 26920 ft 471 kts 34°
2026-05-08 01:13 39.13368 -76.25006 26926 ft 473 kts 34°
2026-05-08 01:13 39.15793 -76.22141 26915 ft 473 kts 34°
2026-05-08 01:14 39.18222 -76.19291 26916 ft 473 kts 34°
2026-05-08 01:14 39.20662 -76.16438 26948 ft 473 kts 34°
2026-05-08 01:14 39.23103 -76.13584 26893 ft 474 kts 34°
2026-05-08 01:14 39.25543 -76.10725 26899 ft 473 kts 34°
2026-05-08 01:15 39.27975 -76.07871 26733 ft 473 kts 34°
2026-05-08 01:15 39.30416 -76.05006 26217 ft 474 kts 34°
2026-05-08 01:15 39.32841 -76.02153 25829 ft 470 kts 35°
2026-05-08 01:15 39.35253 -75.99312 25422 ft 467 kts 35°
2026-05-08 01:16 39.37643 -75.96494 25015 ft 465 kts 35°
2026-05-08 01:16 39.40025 -75.93683 24668 ft 462 kts 36°
2026-05-08 01:16 39.42390 -75.90892 24236 ft 461 kts 36°
2026-05-08 01:16 39.44753 -75.88101 23826 ft 459 kts 36°
2026-05-08 01:17 39.47104 -75.85320 23427 ft 457 kts 36°
2026-05-08 01:17 39.49443 -75.82551 22968 ft 454 kts 36°
2026-05-08 01:17 39.51771 -75.79792 22547 ft 451 kts 36°
2026-05-08 01:17 39.54071 -75.77063 22139 ft 447 kts 37°
2026-05-08 01:18 39.56348 -75.74358 21776 ft 442 kts 37°
2026-05-08 01:18 39.58603 -75.71678 21382 ft 438 kts 37°
2026-05-08 01:18 39.60838 -75.69020 21039 ft 435 kts 37°
2026-05-08 01:18 39.63059 -75.66378 20660 ft 431 kts 37°
2026-05-08 01:19 39.65264 -75.63751 20294 ft 428 kts 37°
2026-05-08 01:19 39.67444 -75.61151 19927 ft 424 kts 37°
2026-05-08 01:19 39.69609 -75.58561 19524 ft 422 kts 38°
2026-05-08 01:19 39.71762 -75.55973 19094 ft 421 kts 38°
2026-05-08 01:20 39.73905 -75.53390 18679 ft 419 kts 38°
2026-05-08 01:20 39.76036 -75.50820 18247 ft 413 kts 38°
2026-05-08 01:20 39.78114 -75.48307 17771 ft 403 kts 38°
2026-05-08 01:20 39.80152 -75.45842 17355 ft 398 kts 38°
2026-05-08 01:21 39.82143 -75.43437 17044 ft 392 kts 38°
2026-05-08 01:21 39.84158 -75.41001 16651 ft 389 kts 38°
2026-05-08 01:21 39.86135 -75.38611 16275 ft 387 kts 38°
2026-05-08 01:21 39.88102 -75.36230 15899 ft 387 kts 38°
2026-05-08 01:22 39.90043 -75.33880 15509 ft 385 kts 38°
2026-05-08 01:22 39.91998 -75.31508 15126 ft 383 kts 38°
2026-05-08 01:22 39.93937 -75.29153 14742 ft 381 kts 38°
2026-05-08 01:22 39.95869 -75.26806 14359 ft 378 kts 38°
2026-05-08 01:23 39.97788 -75.24472 13997 ft 377 kts 38°
2026-05-08 01:23 39.99703 -75.22141 13612 ft 375 kts 38°
2026-05-08 01:23 40.01605 -75.19824 13183 ft 373 kts 38°
2026-05-08 01:23 40.02858 -75.18297 12927 ft 371 kts 38°
2026-05-08 01:24 40.04738 -75.16003 12531 ft 368 kts 38°
2026-05-08 01:24 40.06595 -75.13736 12154 ft 364 kts 38°
2026-05-08 01:24 40.08463 -75.11455 11804 ft 360 kts 39°
2026-05-08 01:24 40.10259 -75.09259 11444 ft 356 kts 39°
2026-05-08 01:25 40.12662 -75.06318 11022 ft 349 kts 39°
2026-05-08 01:25 40.13822 -75.04895 10837 ft 344 kts 39°
2026-05-08 01:25 40.15535 -75.02793 10464 ft 328 kts 39°
2026-05-08 01:25 40.17138 -75.00821 10142 ft 305 kts 39°
2026-05-08 01:26 40.18648 -74.98968 9867 ft 294 kts 38°
2026-05-08 01:26 40.20127 -74.97157 9592 ft 288 kts 39°
2026-05-08 01:26 40.21577 -74.95381 9287 ft 284 kts 39°
2026-05-08 01:26 40.23011 -74.93620 9029 ft 281 kts 39°
2026-05-08 01:27 40.24429 -74.91877 8778 ft 279 kts 39°
2026-05-08 01:27 40.25828 -74.90126 8515 ft 278 kts 42°
2026-05-08 01:27 40.27150 -74.88293 8271 ft 277 kts 44°
2026-05-08 01:27 40.28436 -74.86465 8096 ft 273 kts 44°
2026-05-08 01:28 40.29714 -74.84647 8036 ft 271 kts 44°
2026-05-08 01:28 40.31006 -74.82825 8001 ft 275 kts 44°
2026-05-08 01:28 40.32248 -74.80869 7627 ft 288 kts 55°
2026-05-08 01:28 40.33234 -74.78575 7310 ft 288 kts 61°
2026-05-08 01:29 40.34116 -74.76269 7053 ft 278 kts 62°
2026-05-08 01:29 40.34967 -74.74038 6819 ft 270 kts 62°
2026-05-08 01:29 40.35814 -74.71857 6626 ft 266 kts 61°
2026-05-08 01:29 40.36663 -74.69707 6440 ft 265 kts 61°
2026-05-08 01:30 40.37515 -74.67571 6249 ft 264 kts 61°
2026-05-08 01:30 40.38372 -74.65443 6047 ft 264 kts 61°
2026-05-08 01:30 40.39232 -74.63316 5859 ft 264 kts 61°
2026-05-08 01:30 40.40093 -74.61194 5671 ft 261 kts 60°
2026-05-08 01:31 40.40936 -74.59118 5445 ft 254 kts 61°
2026-05-08 01:31 40.41757 -74.57100 5212 ft 246 kts 61°
2026-05-08 01:31 40.42548 -74.55154 5045 ft 236 kts 60°
2026-05-08 01:31 40.43312 -74.53275 4991 ft 233 kts 61°
2026-05-08 01:32 40.44085 -74.51377 4998 ft 240 kts 60°
2026-05-08 01:32 40.44880 -74.49421 4963 ft 246 kts 61°
2026-05-08 01:32 40.45698 -74.47410 4518 ft 246 kts 61°
2026-05-08 01:32 40.46493 -74.45451 4284 ft 240 kts 60°
2026-05-08 01:33 40.47259 -74.43562 4082 ft 229 kts 60°
2026-05-08 01:33 40.47991 -74.41758 3926 ft 225 kts 60°
2026-05-08 01:33 40.48703 -74.39931 3769 ft 225 kts 67°
2026-05-08 01:33 40.49203 -74.37979 3610 ft 226 kts 72°
2026-05-08 01:34 40.49647 -74.35988 3474 ft 227 kts 73°
2026-05-08 01:34 40.50096 -74.34005 3324 ft 224 kts 72°
2026-05-08 01:34 40.50534 -74.32099 3172 ft 212 kts 72°
2026-05-08 01:34 40.50952 -74.30298 2977 ft 201 kts 72°
2026-05-08 01:35 40.51391 -74.28662 2870 ft 179 kts 56°
2026-05-08 01:35 40.52271 -74.27684 2816 ft 162 kts 27°
2026-05-08 01:35 40.53235 -74.26886 2796 ft 163 kts 34°
2026-05-08 01:35 40.54195 -74.26092 2809 ft 165 kts 27°
2026-05-08 01:36 40.55211 -74.25405 2798 ft 164 kts 25°
2026-05-08 01:36 40.56230 -74.24749 2548 ft 159 kts 25°
2026-05-08 01:36 40.57190 -74.24129 2254 ft 150 kts 26°
2026-05-08 01:36 40.58105 -74.23520 1989 ft 147 kts 26°
2026-05-08 01:37 40.59034 -74.22944 1749 ft 146 kts 25°
2026-05-08 01:37 40.59950 -74.22361 1642 ft 145 kts 25°
2026-05-08 01:37 40.60884 -74.21767 1404 ft 151 kts 25°
2026-05-08 01:37 40.61820 -74.21173 1276 ft 148 kts 25°
2026-05-08 01:38 40.62767 -74.20576 1021 ft 153 kts 25°
2026-05-08 01:38 40.63716 -74.19998 816 ft 150 kts 26°
2026-05-08 01:38 40.64637 -74.19397 647 ft 148 kts 26°
2026-05-08 01:38 40.65560 -74.18812 488 ft 148 kts 25°
2026-05-08 01:39 40.66508 -74.18219 309 ft 150 kts 25°
2026-05-08 01:39 40.67444 -74.17626 119 ft 147 kts 25°
2026-05-08 01:39 40.68342 -74.17052 29 ft 139 kts 25°
2026-05-08 01:39 40.69081 -74.16584 28 ft 86 kts 26°
2026-05-08 01:40 40.69427 -74.16365 29 ft 32 kts 26°
2026-05-08 01:40 40.69564 -74.16401 26 ft 14 kts 304°
2026-05-08 01:40 40.69577 -74.16431 26 ft 0 kts 296°
2026-05-08 01:41 40.69577 -74.16432 26 ft 0 kts 296°
2026-05-08 01:41 40.69578 -74.16434 26 ft 0 kts 296°
2026-05-08 01:41 40.69580 -74.16439 26 ft 1 kts 296°
2026-05-08 01:42 40.69582 -74.16446 26 ft 1 kts 296°
2026-05-08 01:42 40.69585 -74.16454 26 ft 1 kts 296°
2026-05-08 01:42 40.69586 -74.16457 26 ft 0 kts 296°
2026-05-08 01:43 40.69587 -74.16459 26 ft 3 kts 296°
2026-05-08 01:43 40.69616 -74.16535 26 ft 11 kts 296°
2026-05-08 01:43 40.69649 -74.16624 27 ft 11 kts 295°
2026-05-08 01:43 40.69676 -74.16703 26 ft 8 kts 283°
2026-05-08 01:44 40.69647 -74.16762 26 ft 8 kts 215°
2026-05-08 01:44 40.69598 -74.16795 27 ft 8 kts 206°
2026-05-08 01:44 40.69549 -74.16827 27 ft 8 kts 206°
2026-05-08 01:44 40.69499 -74.16859 27 ft 8 kts 205°
2026-05-08 01:45 40.69447 -74.16893 27 ft 9 kts 208°
2026-05-08 01:45 40.69380 -74.16938 27 ft 12 kts 205°
2026-05-08 01:45 40.69294 -74.16990 26 ft 15 kts 205°
2026-05-08 01:45 40.69201 -74.17048 26 ft 15 kts 205°
2026-05-08 01:46 40.69107 -74.17105 28 ft 15 kts 206°
2026-05-08 01:46 40.69014 -74.17166 32 ft 15 kts 207°
2026-05-08 01:46 40.68921 -74.17226 27 ft 15 kts 205°
2026-05-08 01:46 40.68828 -74.17285 27 ft 15 kts 206°
2026-05-08 01:47 40.68735 -74.17344 27 ft 15 kts 206°
2026-05-08 01:47 40.68642 -74.17403 28 ft 15 kts 205°
2026-05-08 01:47 40.68550 -74.17462 27 ft 15 kts 205°
2026-05-08 01:48 40.68364 -74.17580 26 ft 15 kts 205°
2026-05-08 01:48 40.68271 -74.17640 26 ft 15 kts 206°
2026-05-08 01:48 40.68217 -74.17674 26 ft 7 kts 206°
2026-05-08 01:48 40.68171 -74.17703 26 ft 7 kts 206°
2026-05-08 01:49 40.68126 -74.17733 26 ft 7 kts 205°
2026-05-08 01:49 40.68079 -74.17761 26 ft 7 kts 205°
2026-05-08 01:49 40.68052 -74.17814 26 ft 7 kts 264°
2026-05-08 01:49 40.68074 -74.17873 26 ft 7 kts 306°
2026-05-08 01:50 40.68109 -74.17922 27 ft 7 kts 316°
2026-05-08 01:50 40.68145 -74.17970 27 ft 7 kts 306°
2026-05-08 01:50 40.68137 -74.18030 27 ft 7 kts 222°
2026-05-08 01:50 40.68092 -74.18064 27 ft 8 kts 206°
2026-05-08 01:51 40.68044 -74.18094 27 ft 8 kts 205°
2026-05-08 01:51 40.67997 -74.18124 27 ft 7 kts 205°
2026-05-08 01:51 40.67950 -74.18153 27 ft 8 kts 205°
2026-05-08 01:51 40.67903 -74.18183 27 ft 8 kts 207°
2026-05-08 01:52 40.67870 -74.18205 27 ft 1 kts 204°
2026-05-08 01:52 40.67861 -74.18203 27 ft 1 kts 168°
2026-05-08 01:52 40.67855 -74.18194 27 ft 1 kts 130°
2026-05-08 01:52 40.67849 -74.18182 27 ft 2 kts 122°
2026-05-08 01:53 40.67842 -74.18167 27 ft 2 kts 119°
2026-05-08 01:53 40.67837 -74.18152 27 ft 1 kts 116°
2026-05-08 01:53 40.67836 -74.18151 27 ft 0 kts 116°